{"data":{"norad_id":54126,"epoch":"2026-05-25T03:28:23.522016Z","epoch_age_seconds":62778,"freshness":"FRESH","line1":"1 54126U 22138P   26145.14471669  .00000037  00000+0  59015-4 0  9993","line2":"2 54126  87.9149 309.5694 0001427  83.9794 276.1501 13.19726984173797","mean_motion":13.19726984,"eccentricity":0.0001427,"inclination_deg":87.9149,"raan_deg":309.5694,"arg_perigee_deg":83.9794,"mean_anomaly_deg":276.1501,"bstar":5.9015e-5,"rev_number":17379,"period_min":109.11347706444,"perigee_km":1184.6836027139,"apogee_km":1186.8423397657,"semimajor_km":7563.8999712398,"source":"CELESTRAK","updated_at":"2026-05-25T13:38:22.587062Z"}}